Cloud_Cover
6 8 100 24 5 2 0 56 81 22 6 17 84 7 13 100 66 5 100 100 100 100 100 100 100 94 90 93 81 100 100 100 100 100 82 100 100 100 100 100 100 100 83
5 11 76 51 17 4 1 92 100 27 4 13 46 52 5 5 5 14 51 52 98 100 100 100 100 100 100 100 100 98 96 49 97 100 100 100 98 72 21 60 10 32 7
5 8 87 9 52 12 0 26 100 33 5 7 4 4 26 4 1 3 2 9 6 46 98 100 91 100 100 100 13 86 93 96 68 5 4 28 15 7 0 2 28 64 2
5 38 56 8 5 5 5 5 6 5 4 4 0 3 3 0 0 0 0 9 2 1 48 20 2 6 74 38 45 5 0 0 0 0 0 3 5 9 66 4 5 29 5
1 45 35 5 5 5 5 5 5 5 5 2 0 0 4 0 4 15 19 17 0 1 0 0 0 1 0 0 0 0 5 0 0 0 0 9 17 91 98 93 47 5 5
21 36 30 5 5 5 5 5 5 11 5 4 0 0 0 0 5 28 16 0 0 0 0 0 0 0 0 0 0 0 0 0 0 0 0 0 10 1 2 5 5 5 30
80 55 51 5 17 39 35 85 99 100 99 27 5 0 0 0 11 35 8 0 0 0 0 0 0 0 0 0 0 0 0 0 0 1 0 1 74 94 11 29 5 5 5
26 98 78 34 5 7 23 79 85 100 100 100 78 1 0 0 11 8 5 5 5 2 0 2 0 0 0 2 5 3 2 4 3 7 1 0 67 6 6 5 3 0 6
47 51 64 37 17 5 5 60 21 100 100 100 100 5 5 21 8 0 0 1 4 5 33 16 0 0 4 6 4 5 5 4 13 17 5 5 26 64 3 0 0 0 4
65 56 49 31 52 51 46 3 39 29 99 81 6 5 23 28 1 0 0 2 2 5 96 100 93 97 81 36 26 12 24 22 22 9 9 8 26 27 0 0 0 0 10
100 92 63 49 99 82 79 53 21 12 22 68 37 38 92 56 35 49 37 5 5 100 100 100 100 100 100 100 100 99 94 100 91 58 13 0 3 12 5 4 9 63 12
100 100 99 81 100 100 100 88 79 80 98 98 99 68 78 80 96 100 55 4 49 100 100 100 100 72 37 93 100 100 100 100 76 99 54 5 6 15 5 5 5 21 8
100 100 100 100 100 100 100 100 100 100 100 100 93 68 100 100 100 100 100 80 100 100 94 40 7 10 32 94 100 100 100 99 32 64 95 6 5 25 7 16 5 6 62
100 100 100 100 100 100 100 100 100 100 100 100 82 100 91 100 100 100 100 100 100 93 5 5 5 12 39 100 100 100 100 99 100 100 100 45 5 5 87 92 28 34 42
100 100 100 100 100 100 100 100 97 100 100 100 100 99 100 100 100 100 100 100 100 39 5 5 5 15 51 100 100 100 100 100 100 100 83 64 59 49 5 17 51 88 87
91 100 100 100 100 100 100 100 100 100 100 100 100 100 100 100 100 100 100 100 76 27 17 1 6 16 37 38 60 96 99 73 71 100 98 98 100 78 67 71 100 100 100
84 100 100 100 100 100 100 86 100 100 100 100 100 100 100 100 100 100 100 96 51 28 2 0 10 7 13 17 62 100 100 98 100 88 99 79 100 50 79 96 100 100 100
89 100 100 100 100 100 100 100 100 100 100 100 100 100 100 100 100 100 100 99 52 25 5 5 6 9 10 5 45 93 100 100 100 96 100 100 96 99 97 100 100 96 100
33 100 94 100 100 100 85 100 98 100 100 100 100 100 100 100 100 100 100 90 42 31 5 5 0 1 3 18 33 78 98 100 100 100 100 100 100 100 88 100 100 100 100
91 85 73 100 100 100 100 100 100 100 100 100 100 100 100 100 100 100 100 70 38 66 5 5 1 0 5 40 83 100 100 100 100 100 100 100 100 100 100 100 100 100 100
100 69 96 100 100 100 100 100 100 100 100 100 100 100 100 100 100 100 100 97 24 47 16 30 5 0 64 63 49 100 100 100 100 100 100 100 100 100 100 100 100 100 100
100 54 61 98 98 100 100 100 92 100 99 100 100 100 100 100 100 90 98 100 74 32 41 5 5 48 95 41 94 79 100 100 100 100 100 100 100 100 100 100 100 85 100
97 84 89 40 73 100 100 100 100 100 100 100 100 100 100 100 100 100 100 100 100 69 92 19 5 5 66 62 28 14 100 100 100 100 100 100 100 100 100 88 93 72 100
100 100 100 90 27 100 100 100 100 100 100 99 100 100 100 100 100 100 100 100 100 64 100 85 48 23 40 9 60 5 2 28 82 100 100 100 100 100 100 100 96 69 92
100 100 100 100 100 45 100 100 100 100 100 100 100 100 100 100 100 100 100 100 100 100 99 77 54 36 13 29 6 5 5 3 3 83 100 100 100 100 100 100 98 91 88
100 100 100 100 100 100 100 100 100 100 100 100 100 100 100 100 100 100 100 100 100 100 100 69 55 100 98 88 70 5 5 22 14 15 70 100 100 100 100 100 100 100 91